ARIANE 2 DEB, 40787

Orbit data source: Space-Track

ARIANE 2 DEB, 40787 is space debris in HEO originally from a launch on Fri, 27 Jan 1989 UTC launched from the French Guiana (FRGUI). Debris objects in space refer to the collection of defunct objects orbiting the Earth. Examples of debris include non-operational satellites, rocket bodies, and fragments generated from explosions, collisions, or faulty payload assembly.

Loading next visibility...
Identifier
40787, 1989-006CG
Orbit
HEO
Country
Flag of FRFR
Related business
Manufacturer
EADS/LV
Mission
Spacecraft
Bus & Motor
Unknown
Mass
Unknown
Launch date (UTC)
1989-01-27 (37 years ago)
Launch vehicle
Unknown
Launch site
French Guiana (FRGUI)
Object type
Payload
Rocket body
Debris
Shape & HBR
Unknown shape, 1.1 m
Radar Cross Section
Medium (>0.1 m² and <1 m²)

Expand to show TLE details & history
Last TLE update: 4 days ago

TLE from 4 days ago
0 ARIANE 2 DEB
1 40787U 89006CG  26058.39855800 -.00000160  00000-0  28951-4 0  9995
2 40787   8.0815 291.0276 7136405  19.7568 282.0158  2.25299000100960
Epoch: 2026-02-27T09:33Z
TLE epoch observation values (Epoch: 2026-02-27T09:33:55.411Z)
Latitude
-6.06942°
Longitude
-141.06072°
Altitude
25,655.049 km
Speed
2.944 km/s
True Right ascension
10h 38m 37s
True Declination
-6° 03' 41"
Sunlit
Object was in daylight at epoch
Visualization orbit readout
Latitude
Unknown
Longitude
Unknown
Altitude
Unknown
Speed
Unknown
Apparent Right ascension
Unknown
Apparent Declination
Unknown
Sunlit
N/A
Visualization observer readout
Local Sidereal Time
12:18:29
Azimuth
Unknown
Elevation
Unknown
Doppler factor
Unknown
Orbital elements
Apogee altitude
35,749.946 km
Perigee altitude
661.716 km
Semi-major axis
24,583.968 km
Eccentricity
0.71364
Inclination
8.0815°
RAAN
291.0276°
Arg. of periapsis
19.7568°
True anomaly
209.17679°
Mean anomaly
282.0158°
Eccentric anomaly
244.96785°
Mean motion
0.56307 °/min
Orbital period
639.35 mins
BSTAR
0.000028951
Loading maneuver chart data...
Computing Atmospheric mass density...
Loading historical data...
Loading historical data...
Loading historical data...
Loading historical data...
Loading historical data...
Loading historical data...
Loading historical data...

Documentation

Showing up to 5 results
|